Location: M.A.R.S.Observatory
(35.4031°N, 81.5481°W)
Time: 14:46:44
(UTC-04:00)

Daily predictions for brighter satellites

Satellite Brightness Start Highest point End
(mag) Time Altitude Azimuth Time Altitude Azimuth Time Altitude Azimuth
ATLAS CENTAUR R/B 3.1 19:26:20 10° SSW 19:30:17 72° ESE 19:42:04 10° NE
Cosmos 2333 Rocket 4.2 19:28:25 10° SW 19:33:33 33° WNW 19:38:42 10° N
SJ-6B 3.6 19:32:47 10° SE 19:36:21 33° ENE 19:40:01 10° N
Okean 3 Rocket 3.6 19:33:12 10° N 19:37:44 66° E 19:42:14 10° SSE
Helios 1A 4.5 19:36:52 10° ESE 19:39:44 18° ENE 19:42:38 10° NNE
FREGAT/IRIS 3.9 19:37:21 10° SE 19:39:50 23° ENE 19:42:20 10° NNE
Resurs 01 Rocket 2.8 19:37:59 10° ESE 19:41:27 23° ENE 19:44:56 10° NNE
NOSS 3-2 (A) 3.7 19:38:13 10° SW 19:44:11 75° WNW 19:50:42 10° NNE
Cosmos 1758 4.0 19:44:54 10° SSE 19:48:34 33° E 19:52:16 10° NNE
ASTRO E2 3.3 19:45:07 10° WSW 19:49:00 47° S 19:52:46 11° ESE
SEDSat Delta rocket 4.3 19:42:59 10° WSW 19:49:25 63° S 19:55:51 11° E
Cosmos 1484 Rocket 3.0 19:47:14 10° S 19:51:03 76° W 19:54:57 10° NNW
Cosmos 1452 Rocket 4.0 19:47:14 10° N 19:52:07 38° ENE 19:56:58 10° SE
ATLAS 5 CENTAUR R/B 1.9 19:49:17 10° SSW 19:53:59 86° WNW 19:59:04 10° NNE
Cosmos 2237 Rocket 4.5 19:49:38 10° WSW 19:54:20 26° WNW 19:59:03 10° N
Abrixas 2.4 19:51:48 10° SW 19:54:46 67° SE 19:57:41 11° ENE
Timation 1 Rocket 4.3 19:50:44 10° NNW 19:56:40 65° ENE 20:02:34 10° SSE
Cosmos 1437 3.9 19:54:27 10° NNW 19:57:37 48° W 20:00:46 10° S
Cosmos 1072 Rocket 4.4 19:54:38 10° S 20:00:45 86° E 20:06:53 10° N
COSMO-SKYMED 1 4.1 19:59:56 10° N 20:04:00 40° WNW 20:08:02 10° SW
Cosmos 1766 4.4 20:07:50 10° SSW 20:11:39 47° W 20:15:31 10° N
ASTEX 1 4.2 20:09:02 10° NNE 20:13:17 28° E 20:17:27 10° SSE
Atlas Centaur 2 4.0 20:05:31 10° W 20:13:23 41° SSW 20:20:45 10° SE
SL-16 R/B 3.6 20:09:43 10° SW 20:15:02 40° WNW 20:20:24 10° N
CENTAUR R/B 2.9 20:10:28 10° S 20:15:47 36° ESE 20:21:37 10° NE
Cosmos 1544 3.2 20:14:11 10° S 20:17:47 49° E 20:21:25 10° NNE
METEOR-M 4.1 20:13:54 10° SSE 20:19:13 73° ENE 20:24:33 10° N
Helios 1B rocket 2.3 20:15:27 10° NNE 20:19:33 71° ESE 20:23:39 10° S
NOSS 3-3 (A) 4.5 20:12:49 10° NNW 20:20:25 84° ENE 20:28:26 10° SSE
NOSS 3-3 (C) 4.5 20:12:55 10° NNW 20:20:31 83° ENE 20:28:32 10° SSE
Cosmos 1766 Rocket 3.5 20:18:55 10° N 20:23:17 88° ENE 20:27:37 10° S
NOSS 3-2 (C) 4.4 20:17:28 10° SW 20:23:18 49° NW 20:29:39 10° NNE
CZ-2D R/B 4.3 20:24:44 25° ENE 20:24:45 25° ENE 20:28:00 10° NNE
Spot 1 4.2 20:21:01 10° SSE 20:25:49 86° ENE 20:30:21 10° NNW
Spot 2 Rocket 3.4 20:21:15 10° SSE 20:26:16 75° ENE 20:31:18 10° N
OAO 3 Rocket 3.1 20:22:52 10° W 20:27:38 86° S 20:30:04 29° E
Cosmos 1076 Rocket 4.0 20:24:39 10° NNW 20:28:57 63° W 20:33:14 10° S
Cosmos 1048 Rocket 4.0 20:24:00 10° S 20:29:13 61° ESE 20:34:24 10° NNE
Cosmos 1269 Rocket 3.9 20:24:29 10° S 20:29:45 73° ESE 20:35:01 10° NNE
FENGYUN 3A 3.9 20:28:51 16° SE 20:32:56 47° ENE 20:38:05 10° N
Cosmos-2242 3.2 20:28:45 10° S 20:33:05 76° W 20:37:30 10° N
Cosmos 2034 Rocket 4.2 20:29:22 10° SSW 20:35:36 74° W 20:41:57 10° N
H-2A R/B 3.4 20:39:09 36° ENE 20:39:09 36° ENE 20:42:27 10° N
ATLAS CENTAUR R/B 4.3 20:37:38 10° WNW 20:39:33 13° WSW 20:41:23 10° SW
Cosmos 1805 4.2 20:36:37 10° SSW 20:40:24 48° W 20:44:15 10° N
Gbstr 26 Del rocket 3.1 20:36:10 10° SW 20:40:24 67° SE 20:42:57 28° ENE
Cosmos 1953 3.4 20:37:57 10° SSW 20:41:47 46° W 20:45:38 10° N
Cosmos 1174 4.2 20:38:02 10° S 20:43:01 52° ESE 20:44:15 39° ENE
ISS -3.0 20:40:05 10° WSW 20:43:18 62° NW 20:44:07 43° NNE
ALOS 2.2 20:42:16 25° SSE 20:44:52 63° ENE 20:49:29 10° N
HJ-1C 4.4 20:43:46 10° S 20:47:01 47° W 20:50:17 10° NNW
Meteosat 1 Rocket2 4.4 20:46:51 10° SW 20:52:45 33° S 20:53:40 31° SSE
Cosmos 1842 Rocket 3.4 20:48:31 10° S 20:52:50 82° E 20:57:11 10° N
Cosmos 158 Rocket 3.7 20:49:35 10° S 20:54:24 60° ESE 20:59:12 10° NNE
Cosmos 1500 Rocket 3.4 20:52:03 10° N 20:56:29 69° E 20:57:01 61° SE
Cosmos 1943 3.0 20:51:38 10° S 20:57:14 69° ESE 21:02:49 10° NNE
USA 215 3.8 20:51:59 10° NE 20:58:22 58° NW 21:04:43 10° WSW
GPS 2-04 Rocket1 2.7 20:55:11 10° WSW 20:58:12 62° SW 20:58:12 62° SW
Cosmos 1943 Rocket 3.9 20:55:45 10° NNE 20:58:07 16° NE 20:58:07 16° NE
Cosmos 2369 Rocket 2.6 20:54:23 10° N 20:59:43 41° ENE 20:59:45 41° ENE
Cosmos 1470 2.9 21:00:01 10° SSW 21:03:52 70° W 21:07:45 10° N
Cosmos 1733 4.4 21:08:47 33° N 21:08:47 33° N 21:11:01 10° N
OAO 1 Rocket 4.3 21:07:27 10° W 21:12:51 86° S 21:13:15 76° ESE
SeaSat 1 2.4 21:15:13 69° S 21:15:13 69° S 21:19:38 10° SSW
Resurs 01 Rocket 3.6 21:13:57 10° SSW 21:17:44 28° W 21:21:34 10° NW
Cosmos 1674 3.7 21:18:07 10° NNW 21:21:24 45° WNW 21:21:24 45° WNW
SEDSat Delta rocket 4.3 21:29:24 10° W 21:35:57 53° SSW 21:35:59 53° SSW
Cosmos 839 Rocket 4.1 21:37:15 10° NNW 21:44:15 77° NNE 21:44:15 77° NNE
Cosmos 1655 Rocket 4.4 21:51:05 10° N 21:55:58 57° NNW 21:55:58 57° NNW
CENTAUR R/B 3.9 22:00:49 10° WSW 22:06:20 35° NW 22:12:29 10° NNE
Cosmos 2369 Rocket 4.4 22:39:02 10° NW 22:41:35 20° WNW 22:41:35 20° WNW
Cosmos 1943 Rocket 4.5 22:38:07 10° NNW 22:39:39 19° NNW 22:39:39 19° NNW
